This is the latest recevied weather packets stored in our database for station/object KD0OXW. If no packets are shown the sender has not sent any weather packets the latest 10 day(s).
| Time | Temp. | Humidity | Pressure | Rain* | Wind** | Luminosity | Snow |
|---|---|---|---|---|---|---|---|
| 1777999689 | 2.78° C | 55% | 1010 hPa | 0 mm | - | - | - |
| 1777999389 | 2.78° C | 57% | 1009.9 hPa | 0 mm | - | - | - |
| 1777999089 | 2.22° C | 54% | 1009.8 hPa | 0 mm | - | - | - |
| 1777998789 | 2.78° C | 55% | 1009.8 hPa | 0 mm | - | - | - |
| 1777998489 | 2.22° C | 56% | 1009.8 hPa | 0 mm | - | - | - |
| 1777998189 | 2.78° C | 55% | 1009.8 hPa | 0 mm | - | - | - |
| 1777997889 | 2.22° C | 55% | 1009.8 hPa | 0 mm | - | - | - |
| 1777997589 | 2.22° C | 54% | 1009.7 hPa | 0 mm | - | - | - |
| 1777997289 | 2.22° C | 56% | 1009.7 hPa | 0 mm | - | - | - |
| 1777996989 | 2.22° C | 57% | 1009.7 hPa | 0 mm | - | - | - |
| 1777996689 | 2.22° C | 57% | 1009.7 hPa | 0 mm | - | - | - |
| 1777996389 | 2.22° C | 58% | 1009.4 hPa | 0 mm | - | - | - |
| 1777996089 | 1.67° C | 57% | 1009.5 hPa | 0 mm | - | - | - |
| 1777995789 | 2.22° C | 57% | 1009.4 hPa | 0 mm | - | - | - |
| 1777995489 | 2.22° C | 57% | 1009.3 hPa | 0 mm | - | - | - |
| 1777995189 | 2.22° C | 56% | 1009.2 hPa | 0 mm | - | - | - |
| 1777994889 | 2.78° C | 55% | 1009 hPa | 0 mm | - | - | - |
| 1777994589 | 2.78° C | 54% | 1008.9 hPa | 0 mm | - | - | - |
| 1777994289 | 2.78° C | 53% | 1008.9 hPa | 0 mm | - | - | - |
| 1777993989 | 3.33° C | 53% | 1008.8 hPa | 0 mm | - | - | - |
| 1777993689 | 3.33° C | 54% | 1008.8 hPa | 0 mm | - | - | - |
| 1777993389 | 3.33° C | 53% | 1008.6 hPa | 0 mm | - | - | - |
| 1777993089 | 3.33° C | 55% | 1008.7 hPa | 0 mm | - | - | - |
| 1777992789 | 3.33° C | 55% | 1008.6 hPa | 0 mm | - | - | - |
| 1777992489 | 3.33° C | 58% | 1008.5 hPa | 0 mm | - | - | - |
* Rain latest hour (hover to see other rain measurements)
** Current wind speed in m/s (hover to see current wind gust speed)